SL-14 DEB, 20308

Orbit data source: Space-Track

SL-14 DEB, 20308 is space debris in LEO originally from a launch on Thu, 28 Sep 1989 UTC launched from the Plesetsk Missile And Space Complex (PKMTR). Debris objects in space refer to the collection of defunct objects orbiting the Earth. Examples of debris include non-operational satellites, rocket bodies, and fragments generated from explosions, collisions, or faulty payload assembly.

Loading next visibility...
Identifier
20308, 1989-080G
Orbit
LEO
Country
Flag of CISCIS
Related business
Manufacturer
Unknown
Mission
Spacecraft
Bus & Motor
Unknown
Mass
Unknown
Launch date (UTC)
1989-09-28 (37 years ago)
Launch vehicle
Unknown
Launch site
Plesetsk Missile And Space Complex (PKMTR)
Object type
Payload
Rocket body
Debris
Shape & HBR
Unknown shape, 0.1 m
Radar Cross Section
Small (<0.1 m²)

Expand to show TLE details & history
Last TLE update: 9 hours ago

TLE from 9 hours ago
0 SL-14 DEB
1 20308U 89080G   26095.26323685  .00003624  00000-0  10760-2 0  9996
2 20308  82.6812 103.9656 0881679 141.3516 225.4222 13.18871170709644
Epoch: 2026-04-05T06:19Z
TLE epoch observation values (Epoch: 2026-04-05T06:19:03.663Z)
Latitude
0.00003°
Longitude
175.62917°
Altitude
1,687.506 km
Speed
6.797 km/s
True Right ascension
06h 55m 51s
True Declination
0° 00' 00"
Sunlit
Object was in daylight at epoch
Visualization orbit readout
Latitude
Unknown
Longitude
Unknown
Altitude
Unknown
Speed
Unknown
Apparent Right ascension
Unknown
Apparent Declination
Unknown
Sunlit
N/A
Visualization observer readout
Local Sidereal Time
21:08:14
Azimuth
Unknown
Elevation
Unknown
Doppler factor
Unknown
Orbital elements
Apogee altitude
1,853.174 km
Perigee altitude
519.304 km
Semi-major axis
7,564.376 km
Eccentricity
0.08817
Inclination
82.6812°
RAAN
103.9656°
Arg. of periapsis
141.3516°
True anomaly
218.75856°
Mean anomaly
225.4222°
Eccentric anomaly
222.03941°
Mean motion
3.29901 °/min
Orbital period
109.12 mins
BSTAR
0.001076
Loading maneuver chart data...
Computing Atmospheric mass density...
Loading historical data...
Loading historical data...
Loading historical data...
Loading historical data...
Loading historical data...
Loading historical data...
Loading historical data...

Documentation

Showing up to 5 results
|